Wetterdaten: Dienstag, 22.03.2011
Datum Zeit Temp. A. Feuchte A. Luftdruck Regen Wind Richtung Richtung Sonnenschein UV Solar Windben
22.03.2011 00:00 1,8 C 79 % 1034,8 hPa 0,0 mm 0,0 km/h (0 Bft) N 0 0 min 0 UV-I 0 W/m 0,0 km/h (0 Bft)
22.03.2011 00:10 1,8 C 79 % 1034,9 hPa 0,0 mm 0,0 km/h (0 Bft) N 0 0 min 0 UV-I 0 W/m 0,0 km/h (0 Bft)
22.03.2011 00:20 1,6 C 79 % 1034,8 hPa 0,0 mm 0,0 km/h (0 Bft) N 0 0 min 0 UV-I 0 W/m 0,0 km/h (0 Bft)
22.03.2011 00:30 1,4 C 79 % 1034,8 hPa 0,0 mm 0,0 km/h (0 Bft) N 0 0 min 0 UV-I 0 W/m 0,0 km/h (0 Bft)
22.03.2011 00:40 1,4 C 80 % 1035,0 hPa 0,0 mm 0,0 km/h (0 Bft) N 0 0 min 0 UV-I 0 W/m 0,0 km/h (0 Bft)
22.03.2011 00:50 1,3 C 80 % 1034,9 hPa 0,0 mm 0,0 km/h (0 Bft) N 0 0 min 0 UV-I 0 W/m 0,0 km/h (0 Bft)
22.03.2011 01:00 1,1 C 80 % 1034,9 hPa 0,0 mm 0,0 km/h (0 Bft) N 0 0 min 0 UV-I 0 W/m 0,0 km/h (0 Bft)
22.03.2011 01:10 1,0 C 81 % 1035,0 hPa 0,0 mm 0,0 km/h (0 Bft) N 0 0 min 0 UV-I 0 W/m 0,0 km/h (0 Bft)
22.03.2011 01:20 0,8 C 82 % 1034,9 hPa 0,0 mm 0,0 km/h (0 Bft) N 0 0 min 0 UV-I 0 W/m 0,0 km/h (0 Bft)
22.03.2011 01:30 0,7 C 82 % 1035,0 hPa 0,0 mm 0,0 km/h (0 Bft) N 0 0 min 0 UV-I 0 W/m 0,0 km/h (0 Bft)
22.03.2011 01:40 0,6 C 82 % 1035,0 hPa 0,0 mm 0,0 km/h (0 Bft) N 0 0 min 0 UV-I 0 W/m 0,0 km/h (0 Bft)
22.03.2011 01:50 0,6 C 82 % 1034,9 hPa 0,0 mm 0,0 km/h (0 Bft) N 0 0 min 0 UV-I 0 W/m 0,0 km/h (0 Bft)
22.03.2011 02:00 0,5 C 82 % 1035,0 hPa 0,0 mm 0,0 km/h (0 Bft) N 0 0 min 0 UV-I 0 W/m 0,0 km/h (0 Bft)
22.03.2011 02:10 0,4 C 83 % 1035,0 hPa 0,0 mm 0,0 km/h (0 Bft) N 0 0 min 0 UV-I 0 W/m 0,0 km/h (0 Bft)
22.03.2011 02:20 0,4 C 83 % 1035,0 hPa 0,0 mm 0,0 km/h (0 Bft) N 0 0 min 0 UV-I 0 W/m 0,0 km/h (0 Bft)
22.03.2011 02:30 0,3 C 83 % 1035,0 hPa 0,0 mm 0,0 km/h (0 Bft) N 0 0 min 0 UV-I 0 W/m 0,0 km/h (0 Bft)
22.03.2011 02:40 0,2 C 83 % 1034,9 hPa 0,0 mm 0,0 km/h (0 Bft) N 0 0 min 0 UV-I 0 W/m 0,0 km/h (0 Bft)
22.03.2011 02:50 0,1 C 89 % 1035,0 hPa 0,0 mm 0,0 km/h (0 Bft) N 0 0 min 0 UV-I 0 W/m 0,0 km/h (0 Bft)
22.03.2011 03:00 0,0 C 84 % 1035,0 hPa 0,0 mm 0,0 km/h (0 Bft) N 0 0 min 0 UV-I 0 W/m 0,0 km/h (0 Bft)
22.03.2011 03:10 -0,1 C 84 % 1034,9 hPa 0,0 mm 0,0 km/h (0 Bft) N 0 0 min 0 UV-I 0 W/m 0,0 km/h (0 Bft)
22.03.2011 03:20 -0,2 C 84 % 1034,8 hPa 0,0 mm 0,0 km/h (0 Bft) N 0 0 min 0 UV-I 0 W/m 0,0 km/h (0 Bft)
22.03.2011 03:30 -0,3 C 85 % 1034,7 hPa 0,0 mm 0,0 km/h (0 Bft) N 0 0 min 0 UV-I 0 W/m 0,0 km/h (0 Bft)
22.03.2011 03:40 -0,3 C 84 % 1034,7 hPa 0,0 mm 0,0 km/h (0 Bft) N 0 0 min 0 UV-I 0 W/m 0,0 km/h (0 Bft)
22.03.2011 03:50 -0,3 C 84 % 1034,7 hPa 0,0 mm 0,0 km/h (0 Bft) N 0 0 min 0 UV-I 0 W/m 0,0 km/h (0 Bft)
22.03.2011 04:00 -0,3 C 84 % 1034,7 hPa 0,0 mm 0,0 km/h (0 Bft) N 0 0 min 0 UV-I 0 W/m 0,0 km/h (0 Bft)
22.03.2011 04:10 -0,4 C 84 % 1034,8 hPa 0,0 mm 0,0 km/h (0 Bft) N 0 0 min 0 UV-I 0 W/m 0,0 km/h (0 Bft)
22.03.2011 04:20 -0,4 C 85 % 1034,8 hPa 0,0 mm 0,0 km/h (0 Bft) N 0 0 min 0 UV-I 0 W/m 0,0 km/h (0 Bft)
22.03.2011 04:30 -0,6 C 85 % 1034,8 hPa 0,0 mm 0,0 km/h (0 Bft) N 0 0 min 0 UV-I 0 W/m 0,0 km/h (0 Bft)
22.03.2011 04:40 -0,7 C 85 % 1034,8 hPa 0,0 mm 0,0 km/h (0 Bft) N 0 0 min 0 UV-I 0 W/m 0,0 km/h (0 Bft)
22.03.2011 04:50 -0,7 C 85 % 1034,8 hPa 0,0 mm 0,0 km/h (0 Bft) N 0 0 min 0 UV-I 0 W/m 0,0 km/h (0 Bft)
22.03.2011 05:00 -0,7 C 86 % 1034,9 hPa 0,0 mm 0,0 km/h (0 Bft) N 0 0 min 0 UV-I 0 W/m 0,0 km/h (0 Bft)
22.03.2011 05:10 -0,8 C 86 % 1035,0 hPa 0,0 mm 0,0 km/h (0 Bft) N 0 0 min 0 UV-I 0 W/m 0,0 km/h (0 Bft)
22.03.2011 05:20 -1,0 C 87 % 1035,0 hPa 0,0 mm 0,0 km/h (0 Bft) N 0 0 min 0 UV-I 0 W/m 0,0 km/h (0 Bft)
22.03.2011 05:30 -1,1 C 87 % 1035,0 hPa 0,0 mm 0,0 km/h (0 Bft) W-NW 292 0 min 0 UV-I 0 W/m 1,6 km/h (1 Bft)
22.03.2011 05:40 -1,2 C 87 % 1035,2 hPa 0,0 mm 0,0 km/h (0 Bft) N 0 0 min 0 UV-I 0 W/m 0,0 km/h (0 Bft)
22.03.2011 05:50 -1,2 C 87 % 1035,3 hPa 0,0 mm 0,0 km/h (0 Bft) N 0 0 min 0 UV-I 0 W/m 0,0 km/h (0 Bft)
22.03.2011 06:00 -1,2 C 87 % 1035,5 hPa 0,0 mm 0,0 km/h (0 Bft) N 0 0 min 0 UV-I 0 W/m 0,0 km/h (0 Bft)
22.03.2011 06:10 -1,3 C 87 % 1035,5 hPa 0,0 mm 0,0 km/h (0 Bft) N 0 0 min 0 UV-I 0 W/m 0,0 km/h (0 Bft)
22.03.2011 06:20 -1,2 C 87 % 1035,7 hPa 0,0 mm 0,0 km/h (0 Bft) N 0 0 min 0 UV-I 0 W/m 0,0 km/h (0 Bft)
22.03.2011 06:30 -1,0 C 87 % 1035,7 hPa 0,0 mm 0,0 km/h (0 Bft) N 0 0 min 0 UV-I 5 W/m 0,0 km/h (0 Bft)
22.03.2011 06:40 -1,0 C 87 % 1035,7 hPa 0,0 mm 0,0 km/h (0 Bft) N 0 0 min 0 UV-I 11 W/m 0,0 km/h (0 Bft)
22.03.2011 06:50 -1,0 C 87 % 1035,7 hPa 0,0 mm 0,0 km/h (0 Bft) N 0 0 min 0 UV-I 18 W/m 0,0 km/h (0 Bft)
22.03.2011 07:00 -0,8 C 87 % 1035,9 hPa 0,0 mm 0,0 km/h (0 Bft) N 0 0 min 0 UV-I 32 W/m 0,0 km/h (0 Bft)
22.03.2011 07:10 -0,6 C 86 % 1035,8 hPa 0,0 mm 0,0 km/h (0 Bft) N 0 0 min 0 UV-I 30 W/m 0,0 km/h (0 Bft)
22.03.2011 07:20 -0,4 C 86 % 1036,0 hPa 0,0 mm 0,0 km/h (0 Bft) N 0 0 min 0 UV-I 32 W/m 0,0 km/h (0 Bft)
22.03.2011 07:30 -0,2 C 86 % 1036,1 hPa 0,0 mm 0,0 km/h (0 Bft) N 0 0 min 0 UV-I 37 W/m 0,0 km/h (0 Bft)
22.03.2011 07:40 0,2 C 86 % 1036,0 hPa 0,0 mm 0,0 km/h (0 Bft) W-NW 292 10 min 0 UV-I 116 W/m 1,6 km/h (1 Bft)
22.03.2011 07:50 0,8 C 85 % 1036,0 hPa 0,0 mm 0,0 km/h (0 Bft) W-NW 292 10 min 0 UV-I 146 W/m 1,6 km/h (1 Bft)
22.03.2011 08:00 1,8 C 83 % 1036,2 hPa 0,0 mm 0,0 km/h (0 Bft) W 281 10 min 0 UV-I 166 W/m 0,0 km/h (0 Bft)
22.03.2011 08:10 2,1 C 81 % 1036,3 hPa 0,0 mm 0,0 km/h (0 Bft) W-NW 292 10 min 1 UV-I 190 W/m 1,6 km/h (1 Bft)
22.03.2011 08:20 2,7 C 78 % 1036,3 hPa 0,0 mm 0,0 km/h (0 Bft) W-NW 292 10 min 1 UV-I 213 W/m 1,6 km/h (1 Bft)
22.03.2011 08:30 3,3 C 75 % 1036,3 hPa 0,0 mm 0,0 km/h (0 Bft) N 0 10 min 1 UV-I 237 W/m 0,0 km/h (0 Bft)
22.03.2011 08:40 3,9 C 73 % 1036,5 hPa 0,0 mm 0,0 km/h (0 Bft) N 0 10 min 1 UV-I 253 W/m 0,0 km/h (0 Bft)
22.03.2011 08:50 4,6 C 71 % 1036,5 hPa 0,0 mm 0,0 km/h (0 Bft) N 0 10 min 1 UV-I 294 W/m 0,0 km/h (0 Bft)
22.03.2011 09:00 5,3 C 69 % 1036,4 hPa 0,0 mm 0,0 km/h (0 Bft) W-NW 292 10 min 1 UV-I 327 W/m 1,6 km/h (1 Bft)
22.03.2011 09:10 6,2 C 67 % 1036,5 hPa 0,0 mm 0,0 km/h (0 Bft) W-NW 292 10 min 1 UV-I 357 W/m 1,6 km/h (1 Bft)
22.03.2011 09:20 7,1 C 64 % 1036,5 hPa 0,0 mm 0,0 km/h (0 Bft) W-NW 292 10 min 1 UV-I 381 W/m 3,2 km/h (1 Bft)
22.03.2011 09:30 7,3 C 64 % 1036,6 hPa 0,0 mm 0,0 km/h (0 Bft) W-NW 292 10 min 1 UV-I 380 W/m 3,2 km/h (1 Bft)
22.03.2011 09:40 7,7 C 62 % 1036,6 hPa 0,0 mm 0,0 km/h (0 Bft) W-NW 292 10 min 2 UV-I 403 W/m 1,6 km/h (1 Bft)
22.03.2011 09:50 8,2 C 61 % 1036,7 hPa 0,0 mm 0,0 km/h (0 Bft) W-NW 292 10 min 2 UV-I 450 W/m 4,8 km/h (1 Bft)
22.03.2011 10:00 8,5 C 59 % 1036,7 hPa 0,0 mm 0,0 km/h (0 Bft) W-NW 292 10 min 2 UV-I 461 W/m 4,8 km/h (1 Bft)
22.03.2011 10:10 9,1 C 57 % 1036,8 hPa 0,0 mm 0,0 km/h (0 Bft) W-NW 292 10 min 2 UV-I 492 W/m 4,8 km/h (1 Bft)
22.03.2011 10:20 9,8 C 56 % 1036,8 hPa 0,0 mm 1,6 km/h (1 Bft) W-NW 292 10 min 2 UV-I 513 W/m 8,0 km/h (2 Bft)
22.03.2011 10:30 9,8 C 56 % 1036,7 hPa 0,0 mm 1,6 km/h (1 Bft) W-NW 292 10 min 2 UV-I 538 W/m 4,8 km/h (1 Bft)
22.03.2011 10:40 10,1 C 55 % 1036,8 hPa 0,0 mm 1,6 km/h (1 Bft) W-NW 292 10 min 2 UV-I 552 W/m 6,4 km/h (2 Bft)
22.03.2011 10:50 10,3 C 53 % 1036,8 hPa 0,0 mm 1,6 km/h (1 Bft) W-NW 292 10 min 2 UV-I 543 W/m 8,0 km/h (2 Bft)
22.03.2011 11:00 10,5 C 55 % 1036,8 hPa 0,0 mm 1,6 km/h (1 Bft) W-NW 292 10 min 2 UV-I 571 W/m 6,4 km/h (2 Bft)
22.03.2011 11:10 10,9 C 52 % 1036,7 hPa 0,0 mm 1,6 km/h (1 Bft) W-NW 292 10 min 3 UV-I 592 W/m 6,4 km/h (2 Bft)
22.03.2011 11:20 11,3 C 51 % 1036,9 hPa 0,0 mm 1,6 km/h (1 Bft) W-NW 292 10 min 3 UV-I 606 W/m 6,4 km/h (2 Bft)
22.03.2011 11:30 11,7 C 49 % 1036,9 hPa 0,0 mm 1,6 km/h (1 Bft) W-NW 292 10 min 3 UV-I 624 W/m 9,7 km/h (2 Bft)
22.03.2011 11:40 12,0 C 47 % 1036,9 hPa 0,0 mm 3,2 km/h (1 Bft) W-NW 292 10 min 3 UV-I 624 W/m 8,0 km/h (2 Bft)
22.03.2011 11:50 12,3 C 47 % 1036,9 hPa 0,0 mm 1,6 km/h (1 Bft) W-NW 292 10 min 3 UV-I 621 W/m 9,7 km/h (2 Bft)
22.03.2011 12:00 12,6 C 46 % 1036,8 hPa 0,0 mm 3,2 km/h (1 Bft) W-NW 292 10 min 3 UV-I 631 W/m 8,0 km/h (2 Bft)
22.03.2011 12:10 12,8 C 45 % 1036,7 hPa 0,0 mm 1,6 km/h (1 Bft) W-NW 292 10 min 3 UV-I 642 W/m 8,0 km/h (2 Bft)
22.03.2011 12:20 13,3 C 43 % 1036,7 hPa 0,0 mm 3,2 km/h (1 Bft) W-NW 292 10 min 3 UV-I 636 W/m 8,0 km/h (2 Bft)
22.03.2011 12:30 13,6 C 42 % 1036,7 hPa 0,0 mm 1,6 km/h (1 Bft) W-NW 292 10 min 3 UV-I 647 W/m 9,7 km/h (2 Bft)
22.03.2011 12:40 13,6 C 43 % 1036,7 hPa 0,0 mm 3,2 km/h (1 Bft) NW 315 10 min 3 UV-I 656 W/m 14,5 km/h (3 Bft)
22.03.2011 12:50 13,6 C 42 % 1036,6 hPa 0,0 mm 1,6 km/h (1 Bft) W-NW 292 10 min 3 UV-I 638 W/m 11,3 km/h (2 Bft)
22.03.2011 13:00 13,8 C 43 % 1036,7 hPa 0,0 mm 4,8 km/h (1 Bft) W-NW 292 10 min 3 UV-I 647 W/m 11,3 km/h (2 Bft)
22.03.2011 13:10 14,3 C 42 % 1036,6 hPa 0,0 mm 1,6 km/h (1 Bft) W-NW 292 10 min 3 UV-I 650 W/m 8,0 km/h (2 Bft)
22.03.2011 13:20 14,5 C 41 % 1036,5 hPa 0,0 mm 1,6 km/h (1 Bft) W-NW 292 10 min 3 UV-I 649 W/m 9,7 km/h (2 Bft)
22.03.2011 13:30 14,7 C 44 % 1036,6 hPa 0,0 mm 3,2 km/h (1 Bft) W-NW 292 10 min 3 UV-I 640 W/m 14,5 km/h (3 Bft)
22.03.2011 13:40 14,7 C 45 % 1036,5 hPa 0,0 mm 1,6 km/h (1 Bft) W 270 10 min 3 UV-I 631 W/m 12,9 km/h (3 Bft)
22.03.2011 13:50 14,7 C 46 % 1036,3 hPa 0,0 mm 4,8 km/h (1 Bft) W 270 10 min 3 UV-I 626 W/m 14,5 km/h (3 Bft)
22.03.2011 14:00 14,8 C 47 % 1036,2 hPa 0,0 mm 1,6 km/h (1 Bft) W-NW 292 10 min 2 UV-I 599 W/m 9,7 km/h (2 Bft)
22.03.2011 14:10 14,8 C 48 % 1036,2 hPa 0,0 mm 1,6 km/h (1 Bft) W-NW 292 10 min 2 UV-I 587 W/m 8,0 km/h (2 Bft)
22.03.2011 14:20 14,9 C 47 % 1036,1 hPa 0,0 mm 3,2 km/h (1 Bft) W-NW 292 10 min 2 UV-I 570 W/m 11,3 km/h (2 Bft)
22.03.2011 14:30 15,0 C 49 % 1035,9 hPa 0,0 mm 1,6 km/h (1 Bft) W-NW 292 10 min 2 UV-I 540 W/m 8,0 km/h (2 Bft)
22.03.2011 14:40 15,1 C 48 % 1035,9 hPa 0,0 mm 1,6 km/h (1 Bft) NW 315 10 min 2 UV-I 538 W/m 11,3 km/h (2 Bft)
22.03.2011 14:50 15,1 C 49 % 1035,9 hPa 0,0 mm 4,8 km/h (1 Bft) W-NW 292 10 min 2 UV-I 540 W/m 20,9 km/h (4 Bft)
22.03.2011 15:00 15,1 C 49 % 1035,7 hPa 0,0 mm 4,8 km/h (1 Bft) W-NW 292 10 min 2 UV-I 510 W/m 11,3 km/h (2 Bft)
22.03.2011 15:10 15,1 C 50 % 1035,6 hPa 0,0 mm 3,2 km/h (1 Bft) W-NW 292 10 min 2 UV-I 483 W/m 14,5 km/h (3 Bft)
22.03.2011 15:20 15,1 C 50 % 1035,6 hPa 0,0 mm 3,2 km/h (1 Bft) W-NW 292 10 min 2 UV-I 448 W/m 9,7 km/h (2 Bft)
22.03.2011 15:30 15,0 C 50 % 1035,5 hPa 0,0 mm 4,8 km/h (1 Bft) W-NW 292 10 min 1 UV-I 434 W/m 16,1 km/h (3 Bft)
22.03.2011 15:40 15,1 C 50 % 1035,4 hPa 0,0 mm 1,6 km/h (1 Bft) W-NW 292 10 min 1 UV-I 404 W/m 9,7 km/h (2 Bft)
22.03.2011 15:50 15,2 C 49 % 1035,4 hPa 0,0 mm 3,2 km/h (1 Bft) W-NW 292 10 min 1 UV-I 394 W/m 11,3 km/h (2 Bft)
22.03.2011 16:00 15,3 C 50 % 1035,4 hPa 0,0 mm 1,6 km/h (1 Bft) W-NW 299 10 min 1 UV-I 361 W/m 11,3 km/h (2 Bft)
22.03.2011 16:10 15,1 C 50 % 1035,4 hPa 0,0 mm 4,8 km/h (1 Bft) W-NW 292 10 min 1 UV-I 355 W/m 11,3 km/h (2 Bft)
22.03.2011 16:20 15,1 C 50 % 1035,5 hPa 0,0 mm 3,2 km/h (1 Bft) W-NW 292 10 min 1 UV-I 311 W/m 9,7 km/h (2 Bft)
22.03.2011 16:30 15,1 C 49 % 1035,5 hPa 0,0 mm 3,2 km/h (1 Bft) W-NW 292 10 min 1 UV-I 287 W/m 11,3 km/h (2 Bft)
22.03.2011 16:40 14,9 C 50 % 1035,4 hPa 0,0 mm 3,2 km/h (1 Bft) W-NW 292 10 min 1 UV-I 255 W/m 11,3 km/h (2 Bft)
22.03.2011 16:50 14,8 C 50 % 1035,4 hPa 0,0 mm 1,6 km/h (1 Bft) W-NW 292 10 min 1 UV-I 236 W/m 8,0 km/h (2 Bft)
22.03.2011 17:00 14,7 C 50 % 1035,4 hPa 0,0 mm 1,6 km/h (1 Bft) W-NW 292 10 min 1 UV-I 206 W/m 6,4 km/h (2 Bft)
22.03.2011 17:10 14,7 C 51 % 1035,5 hPa 0,0 mm 1,6 km/h (1 Bft) W-NW 292 10 min 1 UV-I 186 W/m 8,0 km/h (2 Bft)
22.03.2011 17:20 14,6 C 51 % 1035,4 hPa 0,0 mm 1,6 km/h (1 Bft) W-NW 292 10 min 0 UV-I 160 W/m 4,8 km/h (1 Bft)
22.03.2011 17:30 14,6 C 52 % 1035,4 hPa 0,0 mm 0,0 km/h (0 Bft) W-NW 292 10 min 0 UV-I 139 W/m 4,8 km/h (1 Bft)
22.03.2011 17:40 14,4 C 52 % 1035,5 hPa 0,0 mm 1,6 km/h (1 Bft) W-NW 292 10 min 0 UV-I 116 W/m 8,0 km/h (2 Bft)
22.03.2011 17:50 14,2 C 54 % 1035,5 hPa 0,0 mm 0,0 km/h (0 Bft) W-NW 292 10 min 0 UV-I 95 W/m 3,2 km/h (1 Bft)
22.03.2011 18:00 13,9 C 54 % 1035,7 hPa 0,0 mm 0,0 km/h (0 Bft) W-NW 292 10 min 0 UV-I 69 W/m 4,8 km/h (1 Bft)
22.03.2011 18:10 13,7 C 55 % 1035,8 hPa 0,0 mm 0,0 km/h (0 Bft) W-NW 292 10 min 0 UV-I 49 W/m 4,8 km/h (1 Bft)
22.03.2011 18:20 13,3 C 56 % 1035,7 hPa 0,0 mm 0,0 km/h (0 Bft) W-NW 292 10 min 0 UV-I 28 W/m 1,6 km/h (1 Bft)
22.03.2011 18:30 12,8 C 59 % 1035,7 hPa 0,0 mm 0,0 km/h (0 Bft) N 0 10 min 0 UV-I 18 W/m 0,0 km/h (0 Bft)
22.03.2011 18:40 12,1 C 61 % 1035,8 hPa 0,0 mm 0,0 km/h (0 Bft) N 0 0 min 0 UV-I 11 W/m 0,0 km/h (0 Bft)
22.03.2011 18:50 11,5 C 64 % 1036,0 hPa 0,0 mm 0,0 km/h (0 Bft) N 0 0 min 0 UV-I 0 W/m 0,0 km/h (0 Bft)
22.03.2011 19:00 10,8 C 66 % 1036,1 hPa 0,0 mm 0,0 km/h (0 Bft) N 0 0 min 0 UV-I 0 W/m 0,0 km/h (0 Bft)
22.03.2011 19:10 10,4 C 68 % 1036,1 hPa 0,0 mm 0,0 km/h (0 Bft) N 0 0 min 0 UV-I 0 W/m 0,0 km/h (0 Bft)
22.03.2011 19:20 9,9 C 69 % 1036,2 hPa 0,0 mm 0,0 km/h (0 Bft) N 0 0 min 0 UV-I 0 W/m 0,0 km/h (0 Bft)
22.03.2011 19:30 9,6 C 71 % 1036,3 hPa 0,0 mm 0,0 km/h (0 Bft) N 0 0 min 0 UV-I 0 W/m 0,0 km/h (0 Bft)
22.03.2011 19:40 9,3 C 71 % 1036,4 hPa 0,0 mm 0,0 km/h (0 Bft) N 0 0 min 0 UV-I 0 W/m 0,0 km/h (0 Bft)
22.03.2011 19:50 9,1 C 72 % 1036,5 hPa 0,0 mm 0,0 km/h (0 Bft) N 0 0 min 0 UV-I 0 W/m 0,0 km/h (0 Bft)
22.03.2011 20:00 8,8 C 73 % 1036,6 hPa 0,0 mm 0,0 km/h (0 Bft) N 0 0 min 0 UV-I 0 W/m 0,0 km/h (0 Bft)
22.03.2011 20:10 8,5 C 74 % 1036,5 hPa 0,0 mm 0,0 km/h (0 Bft) N 0 0 min 0 UV-I 0 W/m 0,0 km/h (0 Bft)
22.03.2011 20:20 8,2 C 74 % 1036,7 hPa 0,0 mm 0,0 km/h (0 Bft) N 0 0 min 0 UV-I 0 W/m 0,0 km/h (0 Bft)
22.03.2011 20:30 7,9 C 75 % 1036,7 hPa 0,0 mm 0,0 km/h (0 Bft) N 0 0 min 0 UV-I 0 W/m 0,0 km/h (0 Bft)
22.03.2011 20:40 7,6 C 77 % 1036,8 hPa 0,0 mm 0,0 km/h (0 Bft) N 0 0 min 0 UV-I 0 W/m 0,0 km/h (0 Bft)
22.03.2011 20:50 7,6 C 76 % 1036,8 hPa 0,0 mm 0,0 km/h (0 Bft) N 0 0 min 0 UV-I 0 W/m 0,0 km/h (0 Bft)
22.03.2011 21:00 7,6 C 77 % 1036,9 hPa 0,0 mm 0,0 km/h (0 Bft) N 0 0 min 0 UV-I 0 W/m 0,0 km/h (0 Bft)
22.03.2011 21:10 7,7 C 76 % 1036,9 hPa 0,0 mm 0,0 km/h (0 Bft) N 0 0 min 0 UV-I 0 W/m 0,0 km/h (0 Bft)
22.03.2011 21:20 7,8 C 76 % 1037,0 hPa 0,0 mm 0,0 km/h (0 Bft) N 0 0 min 0 UV-I 0 W/m 0,0 km/h (0 Bft)
22.03.2011 21:30 8,1 C 75 % 1037,1 hPa 0,0 mm 0,0 km/h (0 Bft) W-NW 292 0 min 0 UV-I 0 W/m 1,6 km/h (1 Bft)
22.03.2011 21:40 8,3 C 74 % 1037,1 hPa 0,0 mm 0,0 km/h (0 Bft) N 0 0 min 0 UV-I 0 W/m 0,0 km/h (0 Bft)
22.03.2011 21:50 8,3 C 74 % 1037,1 hPa 0,0 mm 0,0 km/h (0 Bft) N 0 0 min 0 UV-I 0 W/m 0,0 km/h (0 Bft)
22.03.2011 22:00 8,4 C 74 % 1037,1 hPa 0,0 mm 0,0 km/h (0 Bft) W-NW 292 0 min 0 UV-I 0 W/m 1,6 km/h (1 Bft)
22.03.2011 22:10 8,6 C 73 % 1037,3 hPa 0,0 mm 0,0 km/h (0 Bft) W-NW 292 0 min 0 UV-I 0 W/m 11,3 km/h (2 Bft)
22.03.2011 22:20 8,6 C 75 % 1037,4 hPa 0,0 mm 1,6 km/h (1 Bft) NW 315 0 min 0 UV-I 0 W/m 14,5 km/h (3 Bft)
22.03.2011 22:30 8,4 C 75 % 1037,4 hPa 0,0 mm 0,0 km/h (0 Bft) N-NW 337 0 min 0 UV-I 0 W/m 1,6 km/h (1 Bft)
22.03.2011 22:40 8,5 C 75 % 1037,4 hPa 0,0 mm 0,0 km/h (0 Bft) N-NW 337 0 min 0 UV-I 0 W/m 1,6 km/h (1 Bft)
22.03.2011 22:50 8,6 C 74 % 1037,4 hPa 0,0 mm 0,0 km/h (0 Bft) N 0 0 min 0 UV-I 0 W/m 0,0 km/h (0 Bft)
22.03.2011 23:00 8,5 C 75 % 1037,6 hPa 0,0 mm 0,0 km/h (0 Bft) N 0 0 min 0 UV-I 0 W/m 0,0 km/h (0 Bft)
22.03.2011 23:10 8,4 C 75 % 1037,4 hPa 0,0 mm 0,0 km/h (0 Bft) N 0 0 min 0 UV-I 0 W/m 0,0 km/h (0 Bft)
22.03.2011 23:20 8,5 C 74 % 1037,3 hPa 0,0 mm 0,0 km/h (0 Bft) N 0 0 min 0 UV-I 0 W/m 0,0 km/h (0 Bft)
22.03.2011 23:30 8,4 C 74 % 1037,5 hPa 0,0 mm 0,0 km/h (0 Bft) N-NW 337 0 min 0 UV-I 0 W/m 1,6 km/h (1 Bft)
22.03.2011 23:40 8,3 C 76 % 1037,6 hPa 0,0 mm 0,0 km/h (0 Bft) N 0 0 min 0 UV-I 0 W/m 0,0 km/h (0 Bft)
22.03.2011 23:50 8,2 C 77 % 1037,5 hPa 0,0 mm 0,0 km/h (0 Bft) N 0 0 min 0 UV-I 0 W/m 0,0 km/h (0 Bft)
_ Min-Zeit 05:50 13:20 03:30 - 00:00 - - - - - 00:00
Minimum _ -1,3 C 41 % 1034,7 hPa - 0,0 km/h (0 Bft) - - - - - 0,0 km/h (0 Bft)
_ Max-Zeit 15:20 02:50 23:00 00:00 13:00 - - 07:40 12:20 12:40 14:50
Maximum _ 15,3 C 89 % 1037,6 hPa 0,0 mm 4,8 km/h
W-NW (1 Bft)
- - 10 min 3 UV-I 656 W/m 20,9 km/h
W-NW (4 Bft)
Durchschnitt _ 7,2 C 68 % 1036,0 hPa #0,0 mm 0,8 km/h (0 Bft) W-NW - #11:00 h 2 UV-I 371 W/m 3,6 km/h (1 Bft)